User: anonymous   Login
Location: Central Falls
(41.8900°N, 71.3929°W)
Time: 20:09:32
(UTC+00:00)
Language:

AO-109 - Orbit

View from above orbital plane
View from above orbital plane
View from above satellite
View from above satellite

Ground track
Ground track

The orbit data is extracted from the following two-line orbital elements,

1 47311U 21002C   24062.51008655  .00150257  00000-0  10865-2 0  9997
2 47311  60.6678 123.6401 0025453  67.3197 293.0601 15.72266304174504
Epoch (UTC): 02 March 2024 12:14:31
Eccentricity: 0.0025453
inclination: 60.6678°
perigee height: 335 km
apogee height: 369 km
right ascension of ascending node: 123.6401°
argument of perigee: 67.3197°
revolutions per day: 15.72266304
mean anomaly at epoch: 293.0601°
orbit number at epoch: 17450

The dashed part of the orbit path shows where the satellite is in the earth's shadow,  

DLR